FW2350 Weather Reports


time (UTC)temp
C
wind
direction
speed
KPH
gust
KPH
rain 1hr
cm
rain 24hr
cm
rain mn
cm
humidity
%
barometer
mb
20260502210332 13 151 1.6 3.2 0.41 3.20 0.64 95 1010.1
20260502203322 13 151 0.0 0.0 0.00 2.79 0.56 94 1010.2
20260502200315 13 151 0.0 0.0 0.00 2.79 0.56 94 1010.3
20260502193349 13 151 0.0 1.6 0.00 2.79 0.56 94 1010.4
20260502190321 13 151 0.0 3.2 0.10 2.79 0.56 93 1010.4
20260502183314 13 151 1.6 3.2 0.20 2.79 0.56 93 1010.6
20260502180328 13 183 1.6 6.4 0.61 2.69 0.53 92 1011.0
20260502170315 13 183 1.6 4.8 2.11 2.11 0.43 88 1011.9
20260502163345 16 197 9.7 17.7 0.61 0.61 0.13 78 1012.3
20260502160317 17 119 0.0 6.4 0.00 0.00 0.00 70 1012.0
20260502150325 18 146 0.0 9.7 0.00 0.00 0.00 62 1012.4
20260502130322 18 189 4.8 12.9 0.00 0.00 0.00 62 1014.4
20260502123338 20 158 3.2 9.7 0.00 0.00 0.00 62 1014.5
20260502120327 19 223 6.4 9.7 0.00 0.00 0.00 59 1015.0
20260502113322 17 152 3.2 16.1 0.00 0.00 0.00 63 1015.3
20260502110317 17 187 1.6 11.3 0.00 0.00 0.00 66 1015.8
20260502103330 16 196 6.4 14.5 0.00 0.00 0.00 67 1015.9
20260502100344 16 142 1.6 9.7 0.00 0.00 0.00 69 1016.3
20260502090330 16 114 1.6 8.0 0.00 0.00 0.00 75 1016.7
20260502070342 9 246 0.0 3.2 0.00 0.00 0.00 95 1017.4
20260502063315 7 242 0.0 0.0 0.00 0.00 0.00 95 1017.4
20260502060329 7 242 0.0 0.0 0.00 0.00 0.00 94 1017.5
20260502053344 6 254 1.6 3.2 0.00 0.00 0.00 94 1017.4
20260502050337 6 256 0.0 0.0 0.00 0.00 0.00 94 1017.3
20260502043346 6 256 0.0 0.0 0.00 0.00 0.00 93 1017.3
20260502040319 6 256 0.0 0.0 0.00 0.00 0.00 94 1017.5
20260502033333 6 256 0.0 0.0 0.00 0.00 0.00 93 1017.6
20260502030348 5 256 0.0 0.0 0.00 0.00 0.00 92 1017.6
20260502023320 6 256 0.0 0.0 0.00 0.00 0.00 93 1017.8
20260502020313 6 257 0.0 0.0 0.00 0.00 0.00 92 1017.7
20260502013328 7 256 0.0 0.0 0.00 0.00 0.00 91 1018.1
20260502010342 7 256 0.0 0.0 0.00 0.00 0.00 91 1018.4
20260502003351 8 256 0.0 0.0 0.00 0.00 0.00 91 1018.5
20260502000325 8 256 0.0 0.0 0.00 0.00 0.00 90 1018.8
20260501233318 9 256 0.0 1.6 0.00 0.00 0.00 90 1018.7
20260501230313 10 256 0.0 3.2 0.00 0.00 0.00 90 1018.9
20260501223328 11 256 0.0 1.6 0.00 0.00 0.00 89 1018.9
20260501220321 11 256 0.0 1.6 0.00 0.00 0.00 89 1018.9
20260501213317 12 256 0.0 0.0 0.00 0.00 0.00 87 1018.8